#timestamp,LO_Frequency,Hit,StdDev 
1560949215.8,286046998.9,N
1560949235.6,286046998.2,N
1560949255.5,286046998.1,N
1560949275.3,286047000.2,N
1560949295.1,286046999.7,N
1560949315.9,286047004.0,N
1560949335.7,286047004.4,N
1560949355.5,286047001.5,N
1560949375.4,286047004.4,N
1560949395.2,286047003.5,N
1560949415.0,286047002.6,N
1560949415.9,286047002.6,N
1560949435.8,286046999.7,N
1560949455.6,286046999.9,N
1560949475.4,286047000.1,N
1560949495.3,286047001.0,N
1560949515.1,286047000.5,N
1560949535.8,286046998.4,N
1560949555.7,286047000.7,N
1560949575.5,286046998.4,N
1560949595.3,286046998.4,N
1560949615.2,286046999.0,N
1560949635.0,286046997.0,N
1560949635.9,286046997.0,N
1560949655.7,286046999.3,N
1560949675.6,286046997.3,N
1560949695.4,286046995.7,N
1560949715.2,286046995.6,N
1560949735.1,286046997.8,N
1560949736.0,286046997.8,N
1560949755.8,286046997.3,N
1560949775.6,286046997.4,N
1560949795.5,286046994.9,N
1560949815.3,286046996.7,N
1560949835.1,286046996.8,N
1560949855.9,286046999.5,N
1560949875.7,286046999.6,N
1560949895.5,286047001.1,N
1560949915.4,286046998.3,N
1560949935.2,286046996.8,N
1560949955.0,286046998.7,N
1560949955.9,286046998.7,N
1560949975.8,286046996.6,N
1560949995.6,286046998.6,N
1560950015.4,286046998.9,N
1560950035.3,286046997.6,N
1560950055.1,286046991.7,Y
1560950075.9,286046997.9,P
1560950095.7,286046996.6,P
1560950115.5,286046996.6,P
1560950135.4,286046997.4,Y
1560950155.2,286047000.1,P
1560950175.0,286047002.0,N
1560950175.9,286047002.0,N
1560950195.8,286047002.6,N
1560950215.6,286047002.4,N
1560950235.4,286047001.6,N
1560950255.3,286047002.0,N
1560950275.1,286047003.6,N
1560950276.0,286047003.6,N
1560950295.8,286047004.5,N
1560950315.7,286047008.7,Y
1560950335.5,286047006.7,P
1560950355.3,286047004.1,N
1560950375.2,286047003.3,N
1560950395.9,286047004.2,N
1560950415.7,286047002.1,N
1560950435.6,286047001.0,N
1560950455.4,286047002.2,N
1560950475.2,286047002.0,N
1560950495.1,286047001.9,N
1560950496.0,286047001.9,N
1560950515.8,286047003.9,N
1560950535.6,286047007.1,Y
1560950555.5,286047001.6,P
1560950575.3,286047003.7,P
1560950595.1,286047002.7,P
1560950615.9,286047000.5,N
1560950635.7,286047003.6,Y
1560950655.5,286046998.8,P
1560950675.4,286046997.1,N
1560950695.2,286046997.2,N
1560950715.0,286046995.4,N
1560950715.9,286046995.4,N
1560950735.8,286046997.9,N
1560950755.6,286046995.0,N
1560950775.4,286046999.6,N
1560950795.3,286047001.0,N
1560950815.1,286047000.7,N
1560950835.8,286047002.2,N
1560950855.7,286046998.3,N
1560950875.5,286046999.5,N
1560950895.3,286046999.4,N
1560950915.2,286046998.8,N
1560950935.0,286046996.5,N
1560950935.9,286046996.5,N
1560950955.7,286047001.0,N
1560950975.6,286047002.1,N
1560950995.4,286047004.0,N
1560951015.2,286047003.1,N
1560951035.1,286047003.1,N
1560951036.0,286047003.1,N
1560951055.8,286047007.3,N
1560951075.7,286047009.0,N
1560951095.5,286047008.7,N
1560951115.3,286047007.0,N
1560951135.1,286047007.2,N
1560951155.9,286047007.3,N
1560951175.7,286047006.4,N
1560951195.6,286047007.3,N
1560951215.4,286047009.2,N
1560951235.2,286047007.8,N
1560951255.1,286047006.8,N
1560951256.0,286047006.8,N
1560951275.8,286047008.8,N
1560951295.6,286047009.0,N
1560951315.5,286047006.1,N
1560951335.3,286047010.6,N
1560951355.1,286047009.2,N
1560951375.9,286047006.3,N
1560951395.7,286047008.6,N
1560951415.5,286047010.6,N
1560951435.4,286047009.3,N
1560951455.2,286047009.7,N
1560951475.0,286047009.4,N
1560951475.9,286047009.4,N
1560951495.8,286047015.5,Y
1560951515.6,286047002.5,P
1560951535.4,286046996.5,N
1560951555.3,286046997.1,N
1560951575.1,286046995.3,N
1560951595.8,286046997.6,N
1560951615.7,286046994.9,N
1560951635.5,286046996.3,N
1560951655.4,286046994.0,N
1560951675.2,286046993.4,N
1560951695.0,286046995.2,N
1560951695.9,286046995.2,N
1560951715.8,286046996.7,N
1560951735.6,286047000.9,N
1560951755.4,286047002.0,N
1560951775.3,286047003.8,N
1560951795.1,286047005.1,N
1560951796.0,286047005.1,N
1560951815.8,286047005.1,N
1560951835.7,286047007.0,N
1560951855.5,286047004.2,N
1560951875.3,286047002.1,N
1560951895.2,286047001.5,N
1560951915.9,286047004.1,N
1560951935.7,286047003.6,N
1560951955.6,286047004.9,N
1560951975.4,286047005.9,N
1560951995.2,286047004.0,N
1560952015.1,286047004.3,N
1560952016.0,286047004.3,N
1560952035.8,286047001.8,N
1560952055.6,286047001.9,N
1560952075.5,286047004.1,N
1560952095.3,286047004.6,N
1560952115.1,286047001.8,N
1560952135.9,286047000.8,N
1560952155.7,286046998.9,N
1560952175.5,286046998.1,N
1560952195.4,286046998.8,N
1560952215.2,286047000.7,N
1560952235.0,286047001.6,N
1560952235.9,286047001.6,N
1560952255.8,286047004.1,N
1560952275.6,286047002.7,N
1560952295.4,286046999.8,N
1560952315.3,286047002.1,N
1560952335.1,286047001.9,N
1560952355.9,286047003.9,N
1560952375.7,286047003.8,N
1560952395.5,286047002.3,N
1560952415.4,286047000.4,N
1560952435.2,286047002.3,N
1560952455.0,286047002.5,N
1560952455.9,286047002.5,N
1560952475.8,286047001.4,N
1560952495.6,286047002.4,N
1560952515.4,286047000.2,N
1560952535.3,286047004.4,N
1560952555.1,286047002.4,N
1560952575.8,286047002.3,N
1560952595.7,286047004.4,N
1560952615.5,286047002.5,N
1560952635.3,286047002.4,N
1560952655.2,286047002.8,N
1560952675.0,286047000.6,N
1560952675.9,286047000.6,N
1560952695.7,286046999.5,N
1560952715.6,286046996.9,N
1560952735.4,286046995.8,N
1560952755.2,286046996.3,N
1560952775.1,286046993.5,Y
1560952776.0,286046993.5,P
1560952795.8,286046990.8,N
